Location: Obersdorf
(47.4079°N, 10.2781°E)
Time: 04:06:12
(UTC+02:00)

COSMOS 2251 DEB - Pass Details

Date: 09 July 2022
Orbit: 490 x 569 km, 73.9° (Epoch: 11 August)

Event Time Altitude Azimuth Distance (km) Brightness Sun altitude
Exits shadow 03:05:42 14° 145° (SE) 1,614 ? -16.6°
Maximum altitude 03:08:09 22° 101° (ESE) 1,220 ? -16.4°
Drops below altitude 10° 03:11:18 10° 50° (NE) 1,812 ? -16.2°
Sets 03:13:48 0° 35° (NE) 2,692 ? -16.0°
